Location: Newark
(48.6461°N, 4.3644°W)
Time: 10:36:19
(UTC+00:00)

Altair - Pass Details

Date: 26 January 2021
Orbit: 1501 x 1682 km, 47.2° (Epoch: 07 March)

Event Time Altitude Azimuth Distance (km) Brightness Sun altitude
Exits shadow 04:16:42 31° 179° (S) 2,614 8.5 -35.7°
Maximum altitude 04:20:16 40° 140° (SE) 2,305 8.5 -35.2°
Drops below altitude 10° 04:29:23 10° 76° (ENE) 3,949 10.5 -33.7°
Sets 04:32:48 0° 70° (ENE) 4,940 11.2 -33.1°
